Regional Weather Roundup
Issued by NWS Jackson, KY

Home | Current Version | Previous Version | Text Only | Print | Product List | Glossary On
Versions: 1 2 3 4 5 6 7 8 9 10 11 12 13 14 15 16 17 18 19 20 21 22 23 24 25 26 27 28 29 30 31 32 33 34 35 36 37 38 39 40 41 42 43 44 45 46 47 48 49 50
000
ASUS43 KJKL 282210
RWRJKL

EAST KENTUCKY HOURLY WEATHER ROUNDUP
NATIONAL WEATHER SERVICE JACKSON KY
600 PM EDT FRI APR 28 2017

NOTE: "FAIR" INDICATES FEW OR NO CLOUDS BELOW 12,000 FEET WITH
NO SIGNIFICANT WEATHER AND/OR OBSTRUCTIONS TO VISIBILITY.

* THESE REPORTS ARE NOT UNDER NWS QUALITY CONTROL AND MAY NOT
  REPORT WEATHER SUCH AS PRECIPITATION AND FOG.

KYZ079-080-083-085-087-088-110-112-115-119-120-282300
...EASTERN KENTUCKY...

CITY           SKY/WX    TMP DP  RH WIND       PRES   REMARKS
JACKSON        PTSUNNY   81  56  42 VRB3      29.93F
LONDON         MOSUNNY   80  57  45 S8        29.95S
SOMERSET*      CLOUDY    77  59  53 S5        29.94S
MONTICELLO*    CLOUDY    80  64  58 VRB6G20   29.95S
WILLIAMSBURG*  CLEAR     79  63  57 SW12G20   29.95F
MIDDLESBORO*   SUNNY     80  63  56 S6        29.97R
HARLAN APT*    PTCLDY    82  55  39 SW3       29.96S
PIKE CO APT*     N/A     83  49  30 SW6       29.96R
BIG SANDY APT* PTCLDY    84  51  31 S5        29.94S
MOREHEAD APT*  PTCLDY    81  52  36 N5        29.93F
$$

KYZ035-036-041-042-044-050-067-078-099-282300
...CENTRAL KENTUCKY...

CITY           SKY/WX    TMP DP  RH WIND       PRES   REMARKS
MT STERLING*   MOSUNNY   79  57  47 CALM      29.92F
FLEMING/MASON* MOSUNNY   77  56  48 CALM      29.93F
DANVILLE*      PTSUNNY   79  59  50 SW10      29.91F
LEXINGTON      CLOUDY    78  59  51 S7        29.90F
FRANKFORT      PTSUNNY   77  59  53 E10       29.85F
LOUISVILLE     LGT RAIN  78  63  59 S12       29.83S
GLASGOW*       CLOUDY    76  64  66 S8        29.87F
BOWLING GREEN  CLOUDY    78  68  71 S16       29.86S
$$

KYZ091>093-OHZ055-061-077-WVZ005-015-034-035-042-282300
...SOUTHERN OHIO/WEST VIRGINIA...

CITY           SKY/WX    TMP DP  RH WIND       PRES   REMARKS
COVINGTON      CLOUDY    72  57  59 E10       29.88F
COLUMBUS       CLOUDY    72  50  45 NE7       29.97S
DAYTON         LGT RAIN  65  53  65 E8        29.93F
WILMINGTON     TSTM      68  56  65 E5        29.93F
HUNTINGTON     SUNNY     82  53  36 SE6       29.92F
CHARLESTON     MOSUNNY   85  48  27 CALM      29.93F
PINEVILLE*     MOSUNNY   89  34  14 MISG      30.01S
BECKLEY        SUNNY     81  50  33 SE8       30.01F
BLUEFIELD      SUNNY     78  51  38 SE8G20    30.05F
LOGAN CO APT*    N/A     82  43  24 S7        29.96S
$$

VAZ002-007-008-TNZ017-027-036-066-071-282300
...SOUTHWEST VIRGINIA/EAST TENNESSEE...

CITY           SKY/WX    TMP DP  RH WIND       PRES   REMARKS
WISE*          MOSUNNY   79  48  34 S14       30.04S
JONESVILLE*      N/A     82  61  47 W6        29.98S
ABINGDON*      CLOUDY    85  55  35 CALM      30.00S
BRISTOL        MOSUNNY   85  57  38 CALM      29.97S
MORRISTOWN*    CLEAR     81  64  57 SW5       29.96S
SEVIERVILLE*   CLEAR     84  61  45 W3        29.94S
KNOXVILLE      MOSUNNY   82  65  56 W6        29.94S
LAFOLLETTE*    CLOUDY    81  64  57 SW10      29.99R
OAK RIDGE      MOSUNNY   82  64  54 VRB5      29.97R
CROSSVILLE     CLOUDY    75  63  66 MISG      30.00S
NASHVILLE      PTSUNNY   83  68  60 S13       29.87S
$$

...KEY TO REMARKS...
VSB - VISIBILITY IN MILES
WCI - WIND CHILL INDEX
HX  - HEAT INDEX

$$



USA.gov is the U.S. government's official web portal to all federal, state and local government web resources and services.